Location: Newark
(35.0033°N, 81.0878°W)
Time: 10:27:40
(UTC+00:00)

Envisat - Pass Details

Date: 24 October 2020
Orbit: 764 x 766 km, 98.1° (Epoch: 03 December)

Event Time Altitude Azimuth Distance (km) Brightness Sun altitude
Rises 23:24:36 0° 193° (SSW) 3,217 6.5 -10.2°
Reaches altitude 10° 23:27:11 10° 205° (SSW) 2,295 5.9 -10.7°
Maximum altitude 23:31:31 29° 264° (W) 1,393 5.3 -11.6°
Drops below altitude 10° 23:35:53 10° 323° (NW) 2,308 5.9 -12.5°
Sets 23:38:30 0° 335° (NNW) 3,238 6.5 -13.0°
